TimeEDT,TemperatureF,Dew PointF,Humidity,Sea Level PressureIn,VisibilityMPH,Wind Direction,Wind SpeedMPH,Gust SpeedMPH,PrecipitationIn,Events,Conditions,WindDirDegrees,DateUTC
12:54 AM,61.0,59.0,93,30.19,10.0,South,3.5,-,N/A,,Overcast,180,2013-09-19 04:54:00
1:54 AM,61.0,59.0,93,30.19,10.0,Calm,Calm,-,N/A,,Overcast,0,2013-09-19 05:54:00
2:54 AM,61.0,59.0,93,30.18,10.0,Calm,Calm,-,N/A,,Overcast,0,2013-09-19 06:54:00
3:54 AM,62.1,59.0,90,30.16,10.0,SE,3.5,-,N/A,,Overcast,130,2013-09-19 07:54:00
4:06 AM,62.6,59.0,88,30.21,10.0,SE,3.5,-,N/A,,Overcast,130,2013-09-19 08:06:00
4:54 AM,62.1,59.0,90,30.17,10.0,Calm,Calm,-,N/A,,Overcast,0,2013-09-19 08:54:00
5:54 AM,61.0,59.0,93,30.17,10.0,Calm,Calm,-,N/A,,Overcast,0,2013-09-19 09:54:00
6:21 AM,60.8,59.0,94,30.22,10.0,Calm,Calm,-,N/A,,Overcast,0,2013-09-19 10:21:00
6:34 AM,60.8,59.0,94,30.22,10.0,Calm,Calm,-,N/A,,Overcast,0,2013-09-19 10:34:00
6:54 AM,61.0,57.9,90,30.17,10.0,Calm,Calm,-,N/A,,Overcast,0,2013-09-19 10:54:00
7:25 AM,60.8,59.0,94,30.22,10.0,Calm,Calm,-,N/A,,Overcast,0,2013-09-19 11:25:00
7:54 AM,60.1,59.0,96,30.18,9.0,Calm,Calm,-,N/A,,Overcast,0,2013-09-19 11:54:00
8:54 AM,62.1,59.0,90,30.19,8.0,Calm,Calm,-,N/A,,Overcast,0,2013-09-19 12:54:00
9:54 AM,64.0,59.0,84,30.20,9.0,Calm,Calm,-,N/A,,Overcast,0,2013-09-19 13:54:00
10:23 AM,66.2,60.8,83,30.24,10.0,NNW,6.9,-,N/A,,Partly Cloudy,340,2013-09-19 14:23:00
10:54 AM,68.0,61.0,78,30.19,10.0,NNW,6.9,-,N/A,,Scattered Clouds,340,2013-09-19 14:54:00
11:54 AM,73.0,61.0,66,30.17,10.0,NNW,5.8,-,N/A,,Clear,330,2013-09-19 15:54:00
12:54 PM,75.9,62.1,62,30.15,10.0,Variable,5.8,-,N/A,,Clear,0,2013-09-19 16:54:00
1:54 PM,77.0,61.0,58,30.13,10.0,NNW,8.1,-,N/A,,Scattered Clouds,330,2013-09-19 17:54:00
2:54 PM,77.0,61.0,58,30.12,10.0,North,6.9,-,N/A,,Scattered Clouds,350,2013-09-19 18:54:00
3:54 PM,77.0,61.0,58,30.10,10.0,NW,4.6,-,N/A,,Overcast,310,2013-09-19 19:54:00
4:43 PM,73.4,64.4,73,30.17,10.0,SSW,6.9,-,N/A,,Mostly Cloudy,200,2013-09-19 20:43:00
4:54 PM,73.0,64.0,73,30.11,10.0,WSW,5.8,-,N/A,,Overcast,240,2013-09-19 20:54:00
5:54 PM,72.0,66.0,81,30.11,10.0,South,6.9,-,N/A,,Scattered Clouds,180,2013-09-19 21:54:00
6:54 PM,72.0,66.0,81,30.11,10.0,SSE,5.8,-,N/A,,Overcast,160,2013-09-19 22:54:00
7:54 PM,69.1,64.9,87,30.10,10.0,SSE,3.5,-,N/A,,Clear,150,2013-09-19 23:54:00
8:54 PM,66.9,64.9,93,30.12,10.0,Calm,Calm,-,N/A,,Clear,0,2013-09-20 00:54:00
9:54 PM,66.0,64.0,93,30.12,9.0,South,3.5,-,N/A,,Scattered Clouds,190,2013-09-20 01:54:00
10:54 PM,64.9,64.0,97,30.11,8.0,Calm,Calm,-,N/A,,Mostly Cloudy,0,2013-09-20 02:54:00
11:40 PM,64.4,64.4,100,30.17,9.0,Calm,Calm,-,N/A,,Mostly Cloudy,0,2013-09-20 03:40:00
11:54 PM,64.9,64.0,97,30.10,9.0,Calm,Calm,-,N/A,,Partly Cloudy,0,2013-09-20 03:54:00